Location: Hawks Ness
(60.2333°N, 1.1667°W)
Time: 07:49:24
(UTC+00:00)

H-2A R/B - Pass Details

Date: 22 October 2019
Orbit: 530 x 652 km, 98.3° (Epoch: 18 November)

Event Time Altitude Azimuth Distance (km) Brightness Sun altitude
Rises 04:35:25 0° 18° (NNE) 2,795 6.3 -18.6°
Reaches altitude 10° 04:37:32 10° 20° (NNE) 1,911 5.4 -18.3°
Maximum altitude 04:41:41 78° 106° (ESE) 619 2.6 -17.8°
Drops below altitude 10° 04:45:59 10° 194° (SSW) 1,972 4.9 -17.3°
Enters shadow 04:47:17 - 195° (SSW) 2,514 5.5 -17.2°
